Ketchikan, AK

2:18 AM AKST on January 21, 2019 (GMT -0900)
Ketchikan International

Weather History for PAKT - November, 2018

Change the Weather History Date:

Sunday, November 25, 2018

  Actual Average Record
Temperature  
Mean Temperature 48 °F -  
Max Temperature 50 °F 42 °F 53 °F (1954)
Min Temperature 46 °F 34 °F 9 °F (2006)
Degree Days  
Heating Degree Days 17    
Moisture  
Dew Point 44 °F    
Average Humidity 87    
Maximum Humidity 93    
Minimum Humidity 82    
Precipitation  
Precipitation 1.08 in - - ()
Sea Level Pressure  
Sea Level Pressure 29.60 in    
Wind  
Wind Speed 16 mph (SSE)    
Max Wind Speed 24 mph    
Max Gust Speed 33 mph    
Visibility 6 miles    
Events Rain    
Averages and records for this station are not official NWS values.
T = Trace of Precipitation, MM = Missing Value Source: NWS Daily Summary

Daily Weather History Graph

Daily Weather History Graph

Search for Another Location

Airport or City:

Astronomy

Nov. 25, 2018 Rise Set
Actual Time 7:40 AM AKST 3:27 PM AKST
Civil Twilight 6:56 AM AKST 4:10 PM AKST
Nautical Twilight 6:10 AM AKST 4:56 PM AKST
Astronomical Twilight 5:26 AM AKST 5:40 PM AKST
Moon 6:01 PM AKST (11/25) 10:16 AM AKST (11/25)
Length of Visible Light 9h 13m
Length of Day
7h 47m
Waning Gibbous, 91% of the Moon is Illuminated
Nov 25
Waning Gibbous
Nov 29
Last Quarter
Dec 6
New
Dec 15
First Quarter
Dec 22
Full

Hourly Weather History & Observations

Time (AKST) Temp. Windchill Dew Point Humidity Pressure Visibility Wind Dir Wind Speed Gust Speed Precip Events Conditions
12:53 AM 46.0 °F 40.6 °F 43.0 °F 89% 29.76 in 3.0 mi SSE 11.5 mph 20.7 mph 0.11 in Rain Light Rain
1:53 AM 46.9 °F - 43.0 °F 86% 29.76 in 6.0 mi SE 16.1 mph 23.0 mph 0.01 in Rain Light Rain
2:31 AM 46.9 °F - 43.0 °F 86% 29.76 in 2.0 mi SE 16.1 mph 23.0 mph 0.04 in Rain Light Rain
2:51 AM 46.4 °F 39.0 °F 42.8 °F 87% 29.75 in 1.8 mi SE 19.6 mph 26.5 mph 0.08 in Rain Rain
2:53 AM 46.0 °F 38.3 °F 43.0 °F 89% 29.75 in 1.8 mi SE 20.7 mph 26.5 mph 0.08 in Rain Rain
3:06 AM 46.9 °F - 43.0 °F 86% 29.75 in 2.0 mi SE 15.0 mph 27.6 mph 0.04 in Rain Rain
3:18 AM 46.9 °F - 43.0 °F 86% 29.75 in 10.0 mi SE 18.4 mph 29.9 mph 0.05 in Rain Light Rain
3:51 AM 46.4 °F 39.8 °F 42.8 °F 87% 29.74 in 2.5 mi SE 16.1 mph 24.2 mph 0.08 in Rain Light Rain
3:53 AM 46.9 °F - 43.0 °F 86% 29.75 in 2.5 mi SE 16.1 mph - 0.09 in Rain Rain
4:10 AM 46.9 °F - 43.0 °F 86% 29.74 in 3.0 mi SE 17.3 mph - 0.04 in Rain Rain
4:53 AM 46.9 °F - 43.0 °F 86% 29.74 in 4.0 mi SSE 12.7 mph 25.3 mph 0.06 in Rain Rain
5:45 AM 46.9 °F - 43.0 °F 86% 29.72 in 5.0 mi SE 17.3 mph 25.3 mph 0.08 in Rain Light Rain
5:53 AM 46.9 °F - 43.0 °F 86% 29.72 in 10.0 mi SSE 17.3 mph 24.2 mph 0.08 in Rain Light Rain
6:02 AM 46.4 °F 39.2 °F 42.8 °F 87% 29.72 in 10.0 mi SE 18.4 mph - N/A   Overcast
6:53 AM 46.4 °F 40.1 °F 42.8 °F 87% 29.71 in 6.0 mi SE 15.0 mph - N/A Rain Light Rain
7:53 AM 46.4 °F 39.5 °F 42.8 °F 87% 29.70 in 6.0 mi SSE 17.3 mph 26.5 mph N/A   Overcast
8:53 AM 48.2 °F - 42.8 °F 82% 29.69 in 10.0 mi SE 17.3 mph 28.8 mph N/A Rain Light Rain
9:53 AM 46.4 °F 40.7 °F 44.6 °F 93% 29.69 in 3.0 mi SSE 12.7 mph 21.9 mph N/A Rain Light Rain
10:53 AM 48.2 °F - 44.6 °F 87% 29.67 in 6.0 mi SE 17.3 mph 25.3 mph N/A   Overcast
11:53 AM 48.2 °F - 44.6 °F 87% 29.65 in 6.0 mi SSE 16.1 mph 25.3 mph N/A Rain Light Rain
12:53 PM 48.2 °F - 44.6 °F 87% 29.61 in 5.0 mi SSE 13.8 mph - N/A Rain Light Rain
1:53 PM 48.2 °F - 44.6 °F 87% 29.58 in 5.0 mi SSE 15.0 mph 23.0 mph N/A Rain Rain
2:53 PM 46.9 °F - 45.0 °F 93% 29.54 in 6.0 mi SSE 11.5 mph - 0.17 in Rain Rain
3:53 PM 46.4 °F 41.5 °F 44.6 °F 93% 29.50 in 7.0 mi SSE 10.4 mph - N/A Rain Light Rain
4:53 PM 48.0 °F - 44.1 °F 86% 29.46 in 10.0 mi South 10.4 mph - 0.04 in Rain Light Rain
5:53 PM 48.2 °F - 44.6 °F 87% 29.41 in 7.0 mi SSE 12.7 mph 24.2 mph N/A Rain Light Rain
6:51 PM 48.2 °F - 44.6 °F 87% 29.39 in 6.0 mi South 16.1 mph 25.3 mph 0.09 in Rain Rain
6:53 PM 48.2 °F - 44.6 °F 87% 29.39 in 6.0 mi South 17.3 mph 25.3 mph N/A Rain Rain
7:53 PM 48.2 °F - 44.6 °F 87% 29.36 in 8.0 mi SE 13.8 mph 23.0 mph N/A Rain Light Rain
8:53 PM 50.0 °F - 44.6 °F 82% 29.32 in 10.0 mi SSE 15.0 mph 27.6 mph N/A Rain Light Rain
9:53 PM 50.0 °F - 45.0 °F 83% 29.29 in 7.0 mi SE 24.2 mph 31.1 mph 0.10 in Rain Rain
10:53 PM 50.0 °F - 46.0 °F 86% 29.29 in 4.0 mi SE 20.7 mph 27.6 mph 0.19 in Rain Rain
11:30 PM 50.0 °F - 46.0 °F 86% 29.31 in 7.0 mi SSE 17.3 mph 33.4 mph 0.11 in Rain Light Rain
11:53 PM 50.0 °F - 46.0 °F 86% 29.33 in 10.0 mi SSE 16.1 mph 26.5 mph 0.15 in Rain Light Rain